星链-34665 (STARLINK-34665)

导读

STARLINK-34665是美国太空探索技术公司SpaceX星链星座的一颗卫星,于2025年8月4日在美国发射升空。星链项目旨在搭建全球卫星互联网星座,为全球多地提供高速低延迟的宽带网络服务,该卫星加入后进一步扩充了星链星座的在轨卫星规模。

基本信息
目录编号:
65089
目录名称:
STARLINK-34665
国际标识:
2025-167M
轨道中心:
EARTH
卫星名称:
星链-34665
卫星全名:
星链-34665 (STARLINK-34665)
卫星状态:
在轨 (已飞行397 天)
发射日期:
2025-08-04 UTC
国别 :
美国 (US)
星等 :
--
轨道信息
数据来源 国际轨道数据
星历时间: 2026-09-05T19:18:26+0800
12小时前
查看轨道信息
半长轴: 6840.85km
偏心率: 0.0001473
轨道倾角: 53.161°
近地点辐角 78.487°
升交点赤经 271.704°
平近点角 281.630°
近地点: 461.705km
远地点: 463.721km
周期: 93.848分钟
每日圈数: 15.34397
详细信息
固有亮度:
5
最大亮度:
2.5
卫星平台:
Starlink V1.0
覆盖范围:
全球
运营商:
太空探索技术公司
运营商所在国:
美国
制造商(研发单位):
太空探索技术公司
制造商所在国:
美国
使用方式:
暂无
卫星简介
Starlink 计划是 SpaceX 推出的全球卫星互联网项目,通过发射低轨道卫星,为全球尤其是偏远地区提供高速、低延迟的互联网服务。自 2019 年起,Starlink 已部署数千颗卫星,旨在缩小全球数字鸿沟,推动互联网普及。该项目还为军事、航空等行业提供通信支持,带来广泛经济效益。
2D轨道图
3D轨道图
轨道高度分析图
轨道倾角分析图
轨道综合分析图
查看轨道综合分析图
交会数据列表
事件ID 空间交会对象 最接近时刻(TCA) 交会距离 交会风险概率(CRP) 交会风险指数(CRI) 操作
CDM_260907-080805-893806-508921
2026-09-07T
08:08:08+0000
0.276 km
中距离
4.334919E-4 高风险 0.88
CDM_260907-025205-210506-508921
2026-09-07T
02:52:20+0000
0.367 km
远距离
2.540696E-4 高风险 0.83
CDM_260908-021605-357906-508921
2026-09-08T
02:16:52+0000
0.476 km
远距离
1.135308E-4 高风险 0.76
CDM_260907-212505-893806-508921
2026-09-07T
21:25:22+0000
0.837 km
远距离
3.129938E-5 中风险 0.65
CDM_260907-160905-210506-508921
2026-09-07T
16:09:35+0000
1.212 km
极远距离
8.085001E-6 低风险 0.53
CDM_260907-143505-210506-508921
2026-09-07T
14:35:47+0000
1.381 km
极远距离
5.207595E-6 低风险 0.49
CDM_260907-225905-893806-508921
2026-09-07T
22:59:09+0000
1.893 km
极远距离
2.183499E-6 低风险 0.42
CDM_260907-063405-893806-508921
2026-09-07T
06:34:20+0000
1.908 km
极远距离
2.136879E-6 低风险 0.42
CDM_260907-042605-210506-508922
2026-09-07T
04:26:08+0000
2.069 km
极远距离
1.630303E-6 低风险 0.39
CDM_260905-224606-489206-508922
OBJECT S (64892)
2026-09-05T
22:46:49+0000
2.428 km
极远距离
1.301673E-6 低风险 0.37